#timestamp,LO_Frequency,Hit,StdDev 
1594332015.7,286047012.2,N
1594332035.6,286047011.9,N
1594332055.4,286047012.3,N
1594332075.2,286047012.0,N
1594332095.1,286047013.8,N
1594332096.0,286047013.8,N
1594332115.8,286047013.4,N
1594332135.6,286047013.6,N
1594332155.5,286047013.4,N
1594332175.3,286047014.3,Y
1594332195.2,286047006.9,P
1594332215.0,286047005.0,N
1594332215.9,286047005.0,N
1594332235.8,286047009.1,Y
1594332255.6,286047000.1,P
1594332275.4,286047001.8,N
1594332295.3,286047001.9,N
1594332315.1,286047002.1,N
1594332335.8,286047003.2,N
1594332355.7,286047004.2,N
1594332375.5,286047006.0,N
1594332395.4,286047006.3,N
1594332415.2,286047010.1,Y
1594332435.0,286047006.7,P
1594332435.9,286047006.7,P
1594332455.8,286047009.4,P
1594332475.6,286047009.7,Y
1594332495.5,286047003.6,P
1594332515.3,286047005.5,P
1594332535.1,286047005.7,P
1594332555.9,286047007.2,Y
1594332575.7,286047000.4,P
1594332595.6,286046999.4,N
1594332615.4,286047000.1,N
1594332635.2,286047002.8,N
1594332655.1,286047000.2,N
1594332656.0,286047000.2,N
1594332675.8,286046999.8,N
1594332695.6,286047001.9,N
1594332715.5,286047003.5,N
1594332735.3,286047005.0,N
1594332755.2,286047005.2,N
1594332775.9,286047003.1,N
1594332795.7,286047003.0,N
1594332815.6,286047005.9,N
1594332835.4,286047005.8,N
1594332855.3,286047006.7,N
1594332875.1,286047010.0,Y
1594332876.0,286047010.0,P
1594332895.8,286047006.7,N
1594332915.7,286047006.6,N
1594332935.5,286047008.7,Y
1594332955.4,286047002.8,P
1594332975.2,286047003.1,N
1594332995.0,286047005.6,P
1594332995.9,286047005.6,Y
1594333015.8,286046999.1,P
1594333035.6,286046998.9,N
1594333055.4,286047000.6,N
1594333075.3,286047000.2,N
1594333095.1,286047002.0,N
1594333115.9,286047001.4,N
1594333135.7,286047003.0,N
1594333155.5,286047003.2,N
1594333175.4,286047003.4,N
1594333195.2,286047002.9,N
1594333215.0,286047004.0,N
1594333215.9,286047004.0,N
1594333235.8,286047002.7,N
1594333255.6,286047000.0,N
1594333275.5,286047004.4,N
1594333295.3,286047003.5,N
1594333315.1,286047004.7,N
1594333335.9,286047007.1,Y
1594333355.7,286047003.4,P
1594333375.6,286047003.8,P
1594333395.4,286047001.7,N
1594333415.2,286047003.0,Y
1594333435.1,286047000.0,P
1594333436.0,286047000.0,N
1594333455.8,286047001.3,N
1594333475.6,286047006.0,Y
1594333495.5,286047003.5,P
1594333515.3,286047003.0,N
1594333535.2,286047005.0,P
1594333555.9,286047002.2,N
1594333575.7,286047000.9,N
1594333595.6,286047004.3,N
1594333615.4,286047004.2,N
1594333635.2,286047001.4,N
1594333655.1,286047002.1,N
1594333656.0,286047002.1,N
1594333675.8,286047003.9,N
1594333695.7,286047006.2,Y
1594333715.5,286047007.6,P
1594333735.3,286047007.5,P
1594333755.2,286047007.3,P
1594333775.0,286047010.0,Y
1594333775.9,286047010.0,P
1594333795.8,286047005.1,N
1594333815.6,286047007.3,P
1594333835.4,286047008.2,Y
1594333855.3,286047001.4,P
1594333875.1,286047002.6,N
1594333895.8,286046999.8,N
1594333915.7,286047001.8,N
1594333935.5,286046999.9,N
1594333955.4,286047001.0,N
1594333975.2,286047000.1,N
1594333995.0,286047000.1,N
1594333995.9,286047000.1,N
1594334015.8,286047002.8,N
1594334035.6,286047004.3,N
1594334055.4,286047006.4,Y
1594334075.3,286047004.5,P
1594334095.1,286047005.4,P
1594334115.9,286047006.0,P
1594334135.7,286047005.6,Y
1594334155.5,286047000.8,P
1594334175.4,286046999.6,N
1594334195.2,286046999.7,N
1594334215.0,286047003.6,N
1594334215.9,286047003.6,N
1594334235.8,286047006.2,Y
1594334255.6,286047006.7,P
1594334275.5,286047009.5,P
1594334295.3,286047011.0,P
1594334315.1,286047012.8,Y
1594334335.9,286047006.4,P
1594334355.7,286047007.8,P
1594334375.6,286047007.8,P
1594334395.4,286047008.8,Y
1594334415.2,286047001.3,P
1594334435.1,286047004.3,N
1594334436.0,286047004.3,N
1594334455.8,286047001.6,N
1594334475.6,286047005.2,N
1594334495.5,286047007.3,Y
1594334515.3,286047002.9,P
1594334535.2,286047004.9,P
1594334555.9,286047006.3,P
1594334575.7,286047006.8,Y
1594334595.6,286047002.4,P
1594334615.4,286047004.4,P
1594334635.3,286047005.8,P
1594334655.1,286047005.2,Y
1594334656.0,286047005.2,P
1594334705.9,286047000.6,E
1594334715.8,286046998.1,N
1594334735.6,286046996.5,P
1594334755.5,286046995.0,P
1594334775.3,286046999.3,N
1594334795.1,286047000.9,N
1594334815.9,286047002.6,N
1594334835.7,286046999.9,N
1594334855.6,286046998.2,N
1594334905.4,286046998.7,E
1594334915.4,286047000.9,N
1594334935.2,286047002.6,P
1594334955.0,286047003.7,P
1594334955.9,286047003.7,Y
1594334975.8,286047001.5,P
1594334995.6,286047005.6,P
1594335015.4,286047005.8,P
1594335035.3,286047004.4,N
1594335055.1,286047003.8,N
1594335075.9,286047007.3,Y
1594335095.7,286047001.4,P
1594335115.5,286047003.0,N
1594335135.4,286047003.8,P
1594335155.2,286047005.5,Y
1594335175.1,286047003.8,P
1594335176.0,286047003.8,P
1594335195.8,286047003.6,P
1594335215.6,286047005.7,Y
1594335235.5,286047005.8,P
1594335255.3,286047004.2,P
1594335275.1,286047002.9,P
1594335295.9,286047006.6,Y
1594335315.7,286047006.0,P
1594335335.6,286047006.8,P
1594335355.4,286047006.7,P
1594335375.2,286047007.8,Y
1594335395.1,286047004.0,P
1594335396.0,286047004.0,P
1594335415.8,286047002.0,N
1594335435.6,286046999.8,N
1594335455.5,286046999.1,N
1594335475.3,286046998.8,N
1594335495.2,286047000.4,N
1594335515.9,286047003.6,N
1594335535.7,286047003.4,N
1594335555.6,286047001.6,N
1594335575.4,286046999.8,N
1594335595.2,286047005.0,N
